#timestamp,LO_Frequency,Hit,StdDev 
1541782815.5,286047000.3,N
1541782835.3,286046996.9,N
1541782855.2,286046996.6,N
1541782875.0,286046999.5,N
1541782875.9,286046999.5,N
1541782895.7,286046999.1,N
1541782915.6,286046998.8,N
1541782935.4,286046999.8,N
1541782955.3,286047001.7,N
1541782975.1,286047004.2,N
1541782976.0,286047004.2,N
1541782995.8,286047004.4,N
1541783015.7,286047003.4,N
1541783035.5,286047004.9,N
1541783055.3,286047005.8,N
1541783075.2,286047003.9,N
1541783095.0,286047002.1,N
1541783095.9,286047002.1,N
1541783115.8,286047000.1,N
1541783135.6,286046999.5,N
1541783155.4,286046994.9,N
1541783175.3,286046997.7,N
1541783195.1,286046997.0,N
1541783215.8,286046997.6,N
1541783235.7,286046995.2,N
1541783255.5,286046995.6,N
1541783275.4,286046996.7,N
1541783295.2,286046998.8,N
1541783315.0,286047000.8,N
1541783315.9,286047000.8,N
1541783335.8,286047000.4,N
1541783355.6,286047000.7,N
1541783375.4,286046998.2,N
1541783395.3,286046996.5,N
1541783415.1,286046996.7,N
1541783435.9,286046999.1,N
1541783455.7,286046999.4,N
1541783475.5,286046996.6,N
1541783495.4,286046998.3,N
1541783515.2,286046998.9,N
1541783535.0,286046999.6,N
1541783535.9,286046999.6,N
1541783555.8,286046995.3,N
1541783575.6,286046996.1,N
1541783595.5,286046995.2,N
1541783615.3,286046997.2,N
1541783635.1,286046995.4,N
1541783655.9,286046995.7,N
1541783675.7,286046996.2,N
1541783695.5,286046995.6,N
1541783715.4,286046995.8,N
1541783735.2,286046997.8,N
1541783755.1,286046998.9,N
1541783756.0,286046998.9,N
1541783775.8,286047002.2,N
1541783795.6,286047001.5,N
1541783815.5,286047002.7,N
1541783835.3,286047002.3,N
1541783855.1,286047001.8,N
1541783875.9,286047004.9,N
1541783895.7,286047005.0,N
1541783915.6,286047007.2,N
1541783935.4,286047004.5,N
1541783955.2,286047008.5,N
1541783975.1,286047007.8,N
1541783976.0,286047007.8,N
1541783995.8,286047007.9,N
1541784015.6,286047007.8,N
1541784035.5,286047007.9,N
1541784055.3,286047006.6,N
1541784075.2,286047007.4,N
1541784095.9,286047005.0,N
1541784115.7,286047004.7,N
1541784135.6,286047007.0,N
1541784155.4,286047006.4,N
1541784175.2,286047008.0,N
1541784195.1,286047010.7,N
1541784196.0,286047010.7,N
1541784215.8,286047009.9,N
1541784235.6,286047009.7,N
1541784255.5,286047007.7,N
1541784275.3,286047009.5,N
1541784295.2,286047011.4,Y
1541784315.9,286047003.4,P
1541784335.7,286047003.8,N
1541784355.6,286047004.3,P
1541784375.4,286047002.1,N
1541784395.2,286047000.7,N
1541784415.1,286047002.0,N
1541784416.0,286047002.0,N
1541784435.8,286047001.3,N
1541784455.7,286047001.7,N
1541784475.5,286047002.6,N
1541784495.3,286047000.0,N
1541784515.2,286046998.3,N
1541784535.0,286047002.4,N
1541784535.9,286047002.4,N
1541784555.7,286047003.9,N
1541784575.6,286047001.4,N
1541784595.4,286046999.9,N
1541784615.3,286047000.5,N
1541784635.1,286046998.5,N
1541784636.0,286046998.5,N
1541784655.8,286046997.3,N
1541784675.7,286046997.9,N
1541784695.5,286046993.8,N
1541784715.3,286046991.8,Y
1541784735.2,286046991.8,P
1541784755.0,286046991.8,N
1541784755.9,286046991.8,N
1541784775.8,286046993.4,N
1541784795.6,286046993.3,N
1541784815.4,286046993.6,N
1541784835.3,286046996.2,N
1541784855.1,286046995.9,N
1541784875.9,286046994.2,N
1541784895.7,286046993.9,N
1541784915.5,286046995.9,N
1541784935.4,286046998.0,N
1541784955.2,286046997.6,N
1541784975.0,286046997.4,N
1541784975.9,286046997.4,N
1541784995.8,286046997.0,N
1541785015.6,286046997.1,N
1541785035.5,286046998.5,N
1541785055.3,286047000.5,N
1541785075.1,286046999.7,N
1541785095.9,286046998.1,N
1541785115.7,286046998.8,N
1541785135.5,286046998.7,N
1541785155.4,286047000.8,N
1541785175.2,286046998.1,N
1541785195.1,286046999.0,N
1541785196.0,286046999.0,N
1541785215.8,286046997.5,N
1541785235.6,286046997.3,N
1541785255.5,286046997.1,N
1541785275.3,286046999.4,N
1541785295.1,286046996.7,N
1541785315.9,286046996.6,N
1541785335.7,286046997.8,N
1541785355.6,286046996.8,N
1541785375.4,286046995.9,N
1541785395.2,286046996.1,N
1541785415.1,286046994.0,Y
1541785416.0,286046994.0,P
1541785435.8,286046995.4,N
1541785455.6,286046996.5,N
1541785475.5,286046995.4,Y
1541785495.3,286047002.8,P
1541785515.2,286046998.6,N
1541785535.9,286046998.1,N
1541785555.7,286047002.8,N
1541785575.6,286047001.6,N
1541785595.4,286047005.8,N
1541785615.2,286047006.4,N
1541785635.1,286047008.9,N
1541785636.0,286047008.9,N
1541785655.8,286047010.4,N
1541785675.7,286047009.8,N
1541785695.5,286047007.7,N
1541785715.3,286047008.7,N
1541785735.2,286047009.0,N
1541785755.0,286047008.7,N
1541785755.9,286047008.7,N
1541785775.7,286047007.3,N
1541785795.6,286047008.1,N
1541785815.4,286047008.4,N
1541785835.3,286047010.1,N
1541785855.1,286047010.3,N
1541785856.0,286047010.3,N
1541785875.8,286047010.2,N
1541785895.7,286047008.5,N
1541785915.5,286047007.4,N
1541785935.3,286047005.1,N
1541785955.2,286047005.6,N
1541785975.0,286047003.1,N
1541785975.9,286047003.1,N
1541785995.8,286047004.1,N
1541786015.6,286047004.1,N
1541786035.4,286047004.2,N
1541786055.3,286047004.2,N
1541786075.1,286047001.7,N
1541786095.8,286047003.3,N
1541786115.7,286047003.3,N
1541786135.5,286047005.6,N
1541786155.4,286047006.0,N
1541786175.2,286047005.9,N
1541786195.0,286047003.0,N
1541786195.9,286047003.0,N
1541786215.8,286047005.9,N
1541786235.6,286047003.4,N
1541786255.4,286047003.6,N
1541786275.3,286047006.0,N
1541786295.1,286047004.3,N
1541786315.9,286047005.6,N
1541786335.7,286047003.0,N
1541786355.5,286047005.6,N
1541786375.4,286047003.6,N
1541786395.2,286047003.4,N
